Regional Weather Roundup
Issued by NWS Sioux Falls, SD

Home | Current Version | Previous Version | Text Only | Print | Product List | Glossary On
Versions: 1 2 3 4 5 6 7 8 9 10 11 12 13 14 15 16 17 18 19 20 21 22 23 24 25 26 27 28 29 30 31 32 33 34 35 36 37 38 39 40 41 42 43 44 45 46 47 48 49 50
000
ASUS43 KFSD 010510
RWRFSD

WEATHER ROUNDUP FOR SE SOUTH DAKOTA/SW MINNESOTA/NW IOWA
NATIONAL WEATHER SERVICE SIOUX FALLS SD
1200 AM CDT SAT OCT 01 2016

NOTE: "FAIR" INDICATES FEW OR NO CLOUDS BELOW 12,000 FEET WITH NO
SIGNIFICANT WEATHER AND OR OBSTRUCTIONS TO VISIBILITY.


SDZ038>040-050-052>070-010600-
SOUTHEAST SOUTH DAKOTA

CITY           SKY/WX    TMP DP  RH WIND       PRES   REMARKS
BROOKINGS      PTCLDY    54  47  77 SE9       30.18S
CHAMBERLAIN    MOCLDY    56  48  74 SE9       30.12S
HURON          CLOUDY    53  45  74 SE7       30.14S
MADISON        FAIR      46  46 100 CALM      30.18F
MITCHELL       PTCLDY    52  45  77 SE6       30.15F
SIOUX FALLS    CLOUDY    50  45  83 NE5       30.18S
WINNER         FAIR      60  45  57 SE12      30.11S
YANKTON        PTCLDY    54  46  76 CALM      30.15S
$$

MNZ071-072-080-081-089-090-097-098-010600-
SOUTHWEST MINNESOTA

CITY           SKY/WX    TMP DP  RH WIND       PRES   REMARKS
FAIRMONT       CLOUDY    61  54  77 CALM      30.19S
JACKSON        PTCLDY    57  50  77 E3        30.19F
LUVERNE        CLOUDY    52  45  76 CALM      30.19S
MARSHALL       CLEAR     47  43  86 W5        30.19F
MONTEVIDEO     CLEAR     50  45  81 CALM      30.21F
PIPESTONE      CLOUDY    55  48  76 SE5       30.19S
REDWOOD FALLS  CLEAR     57  49  74 E3        30.19F
TRACY          CLEAR     56  51  84 S5        30.20S
WINDOM         PTCLDY    55  50  82 CALM      30.19F
WORTHINGTON    MOCLDY    51  48  89 CALM      30.20S
$$

IAZ001>003-012>014-020>022-031-032-NEZ013-014-SDZ071-010600-
NORTHWEST IOWA

CITY           SKY/WX    TMP DP  RH WIND       PRES   REMARKS
CHEROKEE       CLOUDY    56  56  97 CALM      30.18R
DENISON        CLOUDY    55  54  94 CALM      30.15S
ESTHERVILLE    CLOUDY    59  55  87 CALM      30.18F
LE MARS        CLOUDY    52  50  93 CALM      30.18S
SHELDON        CLOUDY    54  52  94 CALM      30.17S
SIOUX CITY     PTCLDY    52  49  89 CALM      30.17R
SPENCER        PTCLDY    58  54  86 SE6       30.18S
STORM LAKE     MOCLDY    57  55  94 SE3       30.18S
$$

ABBREVIATIONS USED IN REMARKS
   TC - TEMPERATURE IN CELSIUS
  WCI - WIND CHILL INDEX
   HX - HEAT INDEX
  VSB - VISIBILITY





USA.gov is the U.S. government's official web portal to all federal, state and local government web resources and services.